TimeCET,TemperatureF,Dew PointF,Humidity,Sea Level PressureIn,VisibilityMPH,Wind Direction,Wind SpeedMPH,Gust SpeedMPH,PrecipitationIn,Events,Conditions,WindDirDegrees,DateUTC
12:55 AM,37.4,33.8,87,29.21,0.0,SW,36.8,-,N/A,Fog,Fog,230,2012-10-27 22:55:00
1:55 AM,35.6,30.2,81,29.18,0.1,SW,36.8,-,N/A,Fog,Fog,230,2012-10-27 23:55:00
2:00 AM,36,30,73,,0,SW,36.8,,,Fog,Heavy Fog,230,2012-10-28 00:00:00
2:55 AM,35.6,32.0,87,29.18,0.1,SW,36.8,-,N/A,Fog,Fog,230,2012-10-28 00:55:00
2:55 AM,35.6,30.2,81,29.18,6.2,SW,36.8,-,N/A,,Scattered Clouds,230,2012-10-28 01:55:00
3:55 AM,33.8,23.0,65,29.12,6.2,SW,40.3,-,N/A,,Scattered Clouds,230,2012-10-28 02:55:00
4:55 AM,33.8,26.6,75,29.18,6.2,SW,40.3,-,N/A,,Scattered Clouds,230,2012-10-28 03:55:00
5:55 AM,32.0,30.2,93,29.18,0.0,SW,40.3,-,N/A,Fog,Fog,230,2012-10-28 04:55:00
6:55 AM,32.0,32.0,100,29.24,0.0,SW,41.4,-,N/A,Fog,Fog,230,2012-10-28 05:55:00
7:00 AM,32,32,100,,0,SW,41.4,,,Fog,Heavy Fog,230,2012-10-28 06:00:00
7:55 AM,28.4,28.4,100,29.24,0.0,SW,43.7,-,N/A,Fog,Light Freezing Fog,220,2012-10-28 06:55:00
8:55 AM,26.6,24.8,93,29.27,0.2,SW,32.2,-,N/A,Fog,Light Freezing Fog,230,2012-10-28 07:55:00
9:55 AM,26.6,26.6,100,29.27,0.1,SW,29.9,-,N/A,Fog,Light Freezing Fog,230,2012-10-28 08:55:00
10:55 AM,28.4,26.6,93,29.27,0.1,SW,28.8,-,N/A,Fog-Snow,Light Snow,230,2012-10-28 09:55:00
11:55 AM,28.4,26.6,93,29.27,0.1,SW,26.5,-,N/A,Fog-Snow,Light Snow,220,2012-10-28 10:55:00
12:55 PM,28.4,26.6,93,29.30,-9999.0,SW,25.3,-,N/A,Fog,Light Freezing Fog,220,2012-10-28 11:55:00
1:00 PM,28,27,92,,0,SW,25.3,,,Snow,Light Snow,220,2012-10-28 12:00:00
1:55 PM,28.4,26.6,93,29.30,-9999.0,SW,23.0,-,N/A,Fog,Fog,220,2012-10-28 12:55:00
2:55 PM,28.4,26.6,93,29.30,-9999.0,SW,20.7,-,N/A,Fog,Light Freezing Fog,220,2012-10-28 13:55:00
3:55 PM,24.8,24.8,100,29.30,-9999.0,SW,20.7,-,N/A,Fog,Light Freezing Fog,220,2012-10-28 14:55:00
4:55 PM,24.8,24.8,100,29.33,-9999.0,SW,18.4,-,N/A,Fog,Light Freezing Fog,220,2012-10-28 15:55:00
5:55 PM,23.0,23.0,100,29.33,-9999.0,SW,18.4,-,N/A,Fog,Light Freezing Fog,220,2012-10-28 16:55:00
6:55 PM,23.0,23.0,100,29.36,0.0,SW,17.3,-,N/A,Fog,Light Freezing Fog,220,2012-10-28 17:55:00
7:00 PM,23,23,100,,0,SW,17.3,,,Fog,Heavy Fog,220,2012-10-28 18:00:00
7:55 PM,23.0,23.0,100,29.36,0.0,SW,16.1,-,N/A,Fog,Light Freezing Fog,220,2012-10-28 18:55:00
8:55 PM,23.0,23.0,100,29.39,0.0,NNW,15.0,-,N/A,Fog,Light Freezing Fog,330,2012-10-28 19:55:00
9:55 PM,23.0,23.0,100,29.39,0.1,NNW,16.1,-,N/A,Fog,Light Freezing Fog,330,2012-10-28 20:55:00
10:55 PM,21.2,21.2,100,29.39,0.0,NNW,19.6,-,N/A,Fog,Light Freezing Fog,330,2012-10-28 21:55:00